SL-14 R/B (14820 NORAD) Tracking and Keplerian Element Data

This shows tracking and keplerian element data for the satellite.

Feedback or suggestion? Click here.




ElementValue
Catalog14820
NameSL-14 R/B
Epoch Orbit13082
Epoch Day12.7760645
Epoch Year2024
RAAN262.185
Inclination82.5419
Eccentricity0.001987
Argument of Perigee59.4758
Mean Anonmoly300.8416
Mean Motion14.84516452
Decay Rate7.51E-06
L11 14820U 84027B 24012.77606450 .00000751 00000+0 85956-4 0 9999
L22 14820 82.5419 262.1850 0019870 59.4758 300.8416 14.84516452130829



Live tracking and technical data element details for SL-14 R/B (NORAD 14820). SL-14 R/B can be tracked NOW for your location showing map with azimuth and elevation plus other details from your city location.







IsCatalogInMostPopularTable: catalog: 14820, numindb: 277
Update: records affected: 1



GetName: 14820 SL-14 R/B

Hit Count: updated at: Fri, 19 Apr 2024 13:13:56 GMT